Weather in Ovruch

Ukraine / Zhytomyr Region     51˚19′12″N   28˚47′58″E
temp.,
°C
wind,
m/s
gust,
m/s
humid.,
%
clouds,
%
prec.,
mm/h
press.,
hPa
HPBL,
m
2 december, wed
wed223:00−3˚ne358830 0.0 1030247
02:00−2˚ne359564 0.3 1030269
05:00−2˚ne379698 0.1 1028378
08:00−2˚ene259794 0.3 1028275
11:00−1˚e348984 0.1 1028357
14:00ese248986 0.3 1027362
17:00−2˚e259891 0.2 1027199
20:00−2˚se239792 0.3 102682
3 december, thu
thu323:00−2˚ese259896 0.1 1026223
02:00−2˚se259897 0.3 1026236
05:00−1˚se369793 0.3 1025267
08:00se479595 0.4 1025360
11:00+1˚se4890100 0.1 1024480
14:00+1˚se4886100 0.1 1024503
17:00ese499194 0.0 1023338
20:00+1˚se4109586 0.0 1023475
4 december, fri
fri423:00+1˚se41094100 0.0 1022399
02:00+2˚se51196100 0.0 1021437
05:00+3˚se61296100 0.0 1020649
08:00+3˚se61292100 0.0 1020636
11:00+4˚se7148897 0.0 1020770
14:00+5˚se6138497 0.0 1019798
17:00+4˚se6158883 0.0 1019621
20:00+3˚se6158859 0.0 1021642
5 december, sat
sat523:00+2˚se6149183 0.0 1021607
02:00+3˚se7139092 0.0 1022572
05:00+4˚se61290100 0.0 1022519
08:00+4˚se61290100 0.0 1022524
11:00+5˚se61186100 0.0 1023704
14:00+5˚se61183100 0.0 1023744
17:00+4˚se61185100 0.0 1024666
20:00+4˚se61285100 0.0 1025762
6 december, sun
sun623:00+2˚se71283100 0.0 1026667
02:00+1˚se7138697 0.0 1026618
05:00+1˚se71186100 0.0 1026608
08:00+1˚se71183100 0.0 1027655
11:00se7127796 0.0 1027630
14:00+1˚se7127165 0.0 1026730
17:00−1˚ese714711 0.0 1026596
20:00−2˚se614591 0.0 1026619